Search for airport 
image banner adimage banner ad
image banner ad

KOSH - Wittman Rgnl

Located in Oshkosh, United States

ICAO - OSH, IATA - OSH

Data provided by Airmate  

General information

Coordinates: N43°59'4" W88°33'25"
Elevation is 808 feet MSL.
Magnetic variation is -03° East
Rated:
View ratings: [VIEW]


View others Airports in Wisconsin

Operational data

Open for public use
Current time UTC:
Current local time:
Weather
METAR: KOSH 142153Z 25009G14KT 10SM CLR M03/M08 A3017 RMK AO2 SLP237 T10331083
View NOTAMs / SUP AIP / TFR affecting this airport [VIEW]
Communications frequencies: [VIEW]

Runways:

RWY identifierQFULength (ft)Width (ft)SurfaceLDA (ft)
0545°369775ASPH
23225°369775ASPH
0991°6179150CONC5648
27271°6179150CONC5648
13129°306175ASPH
31309°306175ASPH
18181°8002150CONC
368002150CONC

Airport contact information

Address: Oshkosh United States

Basler Flight Service

Basler Flight Service

Fuel provider

Basler Flight Service

Basler Flight Service

Other aviation service providers

Repair station

Myers Aviation, Inc.

Myers Aviation, Inc.

Flight schools

Aviation Services LLC

Aviation Services LLC

Aviation Services Company, Llc

Aviation Services Company, Llc
sdondavis@gmail.com+1(920)410-3591

Non aviation service providers

Restaurant

O'Marro's Public House

O'Marro's Public House

Hardee's

Hardee's
+1 920-231-1234

Ichiban

Ichiban
+1 920-231-5555

Satellite view of KOSH